Weather Roundup
Issued by NWS Chicago, IL

Home | Current Version | Previous Version | Text Only | Print | Product List | Glossary Off
Versions: 1 2 3 4 5 6 7 8 9 10 11 12 13 14 15 16 17 18 19 20 21 22 23 24 25 26 27 28 29 30 31 32 33 34 35 36 37 38 39 40 41 42 43 44 45 46 47 48 49 50

000
NZUS59 KLOT 191812
HRRLOT

CHICAGO AREA WEATHER ROUNDUP
NATIONAL WEATHER SERVICE CHICAGO/ROMEOVILLE IL
1200 PM CST THU JAN 19 2017

NOTE: "FAIR" INDICATES FEW OR NO CLOUDS BELOW 12,000 FEET WITH NO
SIGNIFICANT WEATHER AND/OR OBSTRUCTIONS TO VISIBILITY.

* THESE STATIONS ARE NOT UNDER NWS QUALITY CONTROL. THEY ALSO MAY NOT
  REPORT WEATHER SUCH AS PRECIPITATION OR FOG.

ILZ005-006-012>014-019>023-191900-
NORTHEAST ILLINOIS

CITY           SKY/WX    TMP DP  RH WIND       PRES   REMARKS
OHARE          CLOUDY    39  36  89 S5        29.94F FOG
6HR MIN TEMP:  33; 6HR MAX TEMP:  39;

MIDWAY         CLOUDY    39  35  86 E3        29.95F FOG
6HR MIN TEMP:  33; 6HR MAX TEMP:  39;

AURORA         CLOUDY    39  36  89 E9        29.91F FOG
6HR MIN TEMP:  33; 6HR MAX TEMP:  39;

LANSING*       CLOUDY    39  38  97 SE7       29.97S FOG
JOLIET*        CLOUDY    39  37  93 SE8       29.94F FOG
WAUKEGAN       FOG       36  35  96 SE6       29.94F VSB 3/4
6HR MIN TEMP:  33; 6HR MAX TEMP:  37;

DUPAGE AIRPORT CLOUDY    39  35  86 SE6       29.92F FOG
6HR MIN TEMP:  33; 6HR MAX TEMP:  40;

WHEELING       MOSUNNY   40  35  83 S7        29.96S HAZE
6HR MIN TEMP:  34; 6HR MAX TEMP:  40;

KANKAKEE*      CLOUDY    40  38  90 E13       29.93F FOG
MORRIS*        CLOUDY    38  37  92 SE5       29.93F FOG
LEWIS AIRPORT* CLOUDY    39  38  97 SE6       29.93F FOG
NORTHERLY ISL    N/A     35  33  92 E1          N/A
$$

WIZ051-052-058>065-066-070>072-191900-
SOUTHEAST WISCONSIN

CITY           SKY/WX    TMP DP  RH WIND       PRES   REMARKS
MILWAUKEE      FOG       35  34  96 CALM      29.94F VSB 1/4
6HR MIN TEMP:  33; 6HR MAX TEMP:  35;

KENOSHA*       FOG       36  35  96 CALM      29.94F VSB 1/2
RACINE*        CLOUDY    35  33  92 CALM      29.96F FOG
WAUKESHA       FOG       32  32 100 CALM      29.93F VSB 1/2
WEST BEND      FOG       32  32 100 CALM      29.92F VSB 1/4
$$

INZ001>003-010>013-019-020-191900-
NORTHWEST INDIANA

CITY           SKY/WX    TMP DP  RH WIND       PRES   REMARKS
GARY*          CLOUDY    41  36  81 S5        29.96F FOG
MICHIGAN CITY* NOT AVBL
RENSSELAER*    NOT AVBL
VALPARAISO     CLOUDY    39  37  92 SE9       29.98S FOG
$$

LMZ740>746-191900-
SOUTHERN LAKE MICHIGAN

STATION/POSITION TIME  SKY/WX   TEMP WIND        PRES    VSBY
                                AIR  DIR/SP/G
                 (UTC)          (F)  (DEG/KT/KT) (MB)    (MI)
HARRISON CRIB    1740            36  140/ 10/ 11   N/A
BURNHAM HARBOR   1800            35  150/  3/  6   N/A
CALUMET HARBOR   1748            36   80/  2/  3 1014.1F
BURNS HARBOR     1740            39  110/  7/ 10 1015.2F
MICHIGAN CITY    NOT AVBL
$$

ABBREVIATIONS USED IN REMARKS
   TC - TEMPERATURE IN CELSIUS
  WCI - WIND CHILL INDEX
   HX - HEAT INDEX
  VSB - VISIBILITY
$$




USA.gov is the U.S. government's official web portal to all federal, state and local government web resources and services.